カタログに戻る

DELTA 1 R/B(1)

運用中UNKNOWN
NORAD 10490·ROCKET BODY·🇺🇸 United States

打ち上げ Nov 23, 1977 から Cape Canaveral Space Force Station

Loading…

次のパス (今後24時間)

TLE

最新Source: Space-Track

元期: Sep 14, 2026, 20:00 UTC

1 10490U 77108B   26257.83396923  .00000471  00000-0  97377-4 0  9991
2 10490  28.2976 314.4334 1148128  29.3603 336.6769 12.71876526231124

AllMySatでDELTA 1 R/B(1)をリアルタイム追跡

Download on the App Store